This is the latest recevied weather packets stored in our database for station/object KD7AWQ. If no packets are shown the sender has not sent any weather packets the latest 10 day(s).
| Time | Temp. | Humidity | Pressure | Rain* | Wind** | Luminosity | Snow |
|---|---|---|---|---|---|---|---|
| 1777512686 | 21.67° C | 11% | 1182.9 hPa | 0 mm | - | 24 W/m² | - |
| 1777512384 | 22.22° C | 11% | 1182.8 hPa | 0 mm | - | 30 W/m² | - |
| 1777512080 | 22.22° C | 11% | 1182.9 hPa | 0 mm | - | 39 W/m² | - |
| 1777511779 | 22.22° C | 11% | 1182.9 hPa | 0 mm | - | 43 W/m² | - |
| 1777511475 | 22.22° C | 11% | 1183 hPa | 0 mm | - | 50 W/m² | - |
| 1777511172 | 22.22° C | 11% | 1182.9 hPa | 0 mm | - | 71 W/m² | - |
| 1777510868 | 22.78° C | 11% | 1182.8 hPa | 0 mm | - | 64 W/m² | - |
| 1777510565 | 22.78° C | 11% | 1182.8 hPa | 0 mm | - | 96 W/m² | - |
| 1777510261 | 22.78° C | 10% | 1182.7 hPa | 0 mm | - | 95 W/m² | - |
| 1777509957 | 22.78° C | 10% | 1182.4 hPa | 0 mm | - | 104 W/m² | - |
| 1777509653 | 22.78° C | 10% | 1182.3 hPa | 0 mm | - | 83 W/m² | - |
| 1777509350 | 22.78° C | 10% | 1182.4 hPa | 0 mm | - | 124 W/m² | - |
| 1777509047 | 23.33° C | 10% | 1182.8 hPa | 0 mm | - | 136 W/m² | - |
| 1777508744 | 23.33° C | 10% | 1182.8 hPa | 0 mm | - | 171 W/m² | - |
| 1777508442 | 23.33° C | 10% | 1183 hPa | 0 mm | - | 181 W/m² | - |
| 1777508138 | 23.33° C | 10% | 1183 hPa | 0 mm | - | 118 W/m² | - |
| 1777507835 | 23.33° C | 10% | 1183.1 hPa | 0 mm | - | 121 W/m² | - |
| 1777507532 | 23.89° C | 10% | 1182.8 hPa | 0 mm | - | 149 W/m² | - |
| 1777507229 | 23.89° C | 10% | 1182.6 hPa | 0 mm | - | 152 W/m² | - |
| 1777506927 | 24.44° C | 10% | 1182.6 hPa | 0 mm | - | 201 W/m² | - |
| 1777506624 | 24.44° C | 10% | 1182.8 hPa | 0 mm | - | 447 W/m² | - |
| 1777506320 | 23.89° C | 11% | 1182.6 hPa | 0 mm | - | 329 W/m² | - |
| 1777506016 | 23.89° C | 11% | 1182.8 hPa | 0 mm | - | 269 W/m² | - |
| 1777505711 | 23.89° C | 11% | 1182.9 hPa | 0 mm | - | 223 W/m² | - |
| 1777505409 | 23.89° C | 11% | 1182.7 hPa | 0 mm | - | 225 W/m² | - |
* Rain latest hour (hover to see other rain measurements)
** Current wind speed in m/s (hover to see current wind gust speed)